| time (UTC) | temp F | wind direction | speed MPH | gust MPH | rain 1hr in | rain 24hr in | rain mn in | humidity % | barometer mb |
| 20260506155604 | 61 | 195 | 0.0 | 3.0 | 0.06 | 0.31 | 0.06 | 3 | 1011.5 |
| 20260506155104 | 61 | 172 | 2.0 | 3.0 | 0.04 | 0.30 | 0.04 | 3 | 1011.4 |
| 20260506154604 | 61 | 183 | 3.0 | 7.0 | 0.01 | 0.27 | 0.01 | 8 | 1011.3 |
| 20260506154104 | 61 | 139 | 4.0 | 9.0 | 0.00 | 0.26 | 0.00 | 13 | 1011.2 |
| 20260506153604 | 61 | 138 | 5.0 | 10.0 | 0.00 | 0.26 | 0.00 | 15 | 1011.1 |
| 20260506153104 | 61 | 148 | 7.0 | 9.0 | 0.00 | 0.26 | 0.00 | 18 | 1011.1 |
| 20260506152604 | 61 | 151 | 6.0 | 9.0 | 0.00 | 0.26 | 0.00 | 19 | 1011.1 |
| 20260506152104 | 62 | 135 | 3.0 | 9.0 | 0.00 | 0.26 | 0.00 | 20 | 1010.9 |
| 20260506151604 | 62 | 131 | 5.0 | 13.0 | 0.00 | 0.26 | 0.00 | 21 | 1010.9 |
| 20260506151104 | 62 | 148 | 6.0 | 13.0 | 0.00 | 0.26 | 0.00 | 22 | 1010.8 |
| 20260506150104 | 62 | 142 | 9.0 | 12.0 | 0.00 | 0.26 | 0.00 | 25 | 1010.9 |
| 20260506145104 | 62 | 125 | 4.0 | 9.0 | 0.00 | 0.26 | 0.00 | 27 | 1010.9 |
| 20260506144604 | 63 | 137 | 4.0 | 10.0 | 0.00 | 0.26 | 0.00 | 27 | 1010.8 |
| 20260506144104 | 63 | 135 | 3.0 | 7.0 | 0.00 | 0.26 | 0.00 | 29 | 1010.8 |
| 20260506143105 | 63 | 164 | 5.0 | 14.0 | 0.00 | 0.26 | 0.00 | 29 | 1010.8 |
| 20260506142604 | 63 | 212 | 7.0 | 13.0 | 0.00 | 0.26 | 0.00 | 31 | 1010.6 |
| 20260506142104 | 63 | 192 | 6.0 | 12.0 | 0.00 | 0.26 | 0.00 | 30 | 1010.6 |
| 20260506141604 | 63 | 186 | 6.0 | 12.0 | 0.00 | 0.26 | 0.00 | 31 | 1010.6 |
| 20260506141104 | 63 | 151 | 5.0 | 12.0 | 0.00 | 0.26 | 0.00 | 33 | 1010.7 |
| 20260506140604 | 64 | 147 | 6.0 | 10.0 | 0.00 | 0.26 | 0.00 | 33 | 1010.7 |
| 20260506140104 | 64 | 148 | 4.0 | 9.0 | 0.00 | 0.26 | 0.00 | 31 | 1010.8 |
| 20260506135604 | 64 | 178 | 6.0 | 14.0 | 0.00 | 0.26 | 0.00 | 33 | 1010.8 |
| 20260506135104 | 64 | 143 | 6.0 | 10.0 | 0.00 | 0.26 | 0.00 | 34 | 1010.9 |
| 20260506134604 | 64 | 157 | 5.0 | 9.0 | 0.00 | 0.26 | 0.00 | 34 | 1010.9 |
| 20260506134104 | 64 | 178 | 3.0 | 10.0 | 0.00 | 0.26 | 0.00 | 33 | 1010.9 |
| 20260506133604 | 64 | 169 | 6.0 | 14.0 | 0.00 | 0.26 | 0.00 | 34 | 1011.0 |
| 20260506133104 | 64 | 171 | 6.0 | 14.0 | 0.00 | 0.26 | 0.00 | 36 | 1011.0 |
| 20260506132604 | 65 | 159 | 8.0 | 13.0 | 0.00 | 0.26 | 0.00 | 36 | 1011.0 |
| 20260506131604 | 65 | 189 | 3.0 | 8.0 | 0.00 | 0.26 | 0.00 | 33 | 1011.0 |
| 20260506131103 | 65 | 202 | 3.0 | 10.0 | 0.00 | 0.26 | 0.00 | 35 | 1011.1 |
| 20260506130604 | 64 | 134 | 6.0 | 10.0 | 0.00 | 0.26 | 0.00 | 32 | 1011.0 |
| 20260506130104 | 64 | 158 | 3.0 | 10.0 | 0.00 | 0.26 | 0.00 | 24 | 1011.1 |
| 20260506125604 | 63 | 156 | 4.0 | 8.0 | 0.00 | 0.26 | 0.00 | 22 | 1011.2 |
| 20260506125104 | 63 | 141 | 5.0 | 12.0 | 0.00 | 0.27 | 0.00 | 29 | 1011.3 |
| 20260506124604 | 63 | 174 | 6.0 | 13.0 | 0.00 | 0.27 | 0.00 | 30 | 1011.4 |
| 20260506124104 | 63 | 177 | 8.0 | 14.0 | 0.00 | 0.27 | 0.00 | 32 | 1011.4 |
| 20260506123604 | 63 | 164 | 6.0 | 10.0 | 0.00 | 0.27 | 0.00 | 29 | 1011.5 |
| 20260506123103 | 63 | 157 | 6.0 | 9.0 | 0.00 | 0.27 | 0.00 | 28 | 1011.4 |
| 20260506122604 | 63 | 197 | 7.0 | 14.0 | 0.00 | 0.27 | 0.00 | 31 | 1011.5 |
| 20260506122103 | 63 | 193 | 6.0 | 17.0 | 0.00 | 0.27 | 0.00 | 33 | 1011.4 |
| 20260506121604 | 62 | 177 | 7.0 | 15.0 | 0.00 | 0.27 | 0.00 | 30 | 1011.3 |
| 20260506120604 | 63 | 211 | 5.0 | 9.0 | 0.00 | 0.27 | 0.00 | 25 | 1011.3 |
| 20260506120104 | 63 | 162 | 5.0 | 8.0 | 0.00 | 0.27 | 0.00 | 22 | 1011.4 |
| 20260506115603 | 62 | 156 | 6.0 | 10.0 | 0.00 | 0.27 | 0.00 | 22 | 1011.4 |
| 20260506115104 | 62 | 112 | 3.0 | 10.0 | 0.00 | 0.27 | 0.00 | 23 | 1011.3 |
| 20260506114604 | 62 | 103 | 4.0 | 9.0 | 0.00 | 0.27 | 0.00 | 19 | 1011.5 |
| 20260506114104 | 62 | 85 | 4.0 | 8.0 | 0.00 | 0.27 | 0.00 | 22 | 1011.5 |
| 20260506113604 | 62 | 105 | 6.0 | 8.0 | 0.00 | 0.27 | 0.00 | 24 | 1011.6 |
| 20260506113104 | 62 | 128 | 2.0 | 7.0 | 0.00 | 0.27 | 0.00 | 23 | 1011.6 |
| 20260506112604 | 62 | 103 | 6.0 | 10.0 | 0.00 | 0.27 | 0.00 | 25 | 1011.6 |
| 20260506112104 | 62 | 65 | 6.0 | 10.0 | 0.00 | 0.27 | 0.00 | 26 | 1011.6 |
| 20260506111604 | 62 | 57 | 7.0 | 12.0 | 0.00 | 0.27 | 0.00 | 23 | 1011.6 |
| 20260506110603 | 62 | 18 | 9.0 | 12.0 | 0.00 | 0.27 | 0.00 | 23 | 1011.5 |
| 20260506110104 | 62 | 50 | 4.0 | 8.0 | 0.00 | 0.27 | 0.00 | 20 | 1011.6 |
| 20260506105605 | 62 | 94 | 3.0 | 7.0 | 0.00 | 0.27 | 0.00 | 17 | 1011.6 |
| 20260506105104 | 62 | 105 | 4.0 | 7.0 | 0.00 | 0.27 | 0.00 | 17 | 1011.6 |
| 20260506104604 | 62 | 67 | 7.0 | 12.0 | 0.00 | 0.27 | 0.00 | 20 | 1011.7 |
| 20260506104104 | 62 | 5 | 7.0 | 12.0 | 0.00 | 0.27 | 0.00 | 15 | 1011.7 |
| 20260506103604 | 62 | 34 | 6.0 | 10.0 | 0.00 | 0.27 | 0.00 | 11 | 1011.8 |
| 20260506103103 | 62 | 92 | 6.0 | 9.0 | 0.00 | 0.27 | 0.00 | 9 | 1011.8 |
| 20260506102604 | 61 | 56 | 5.0 | 9.0 | 0.00 | 0.27 | 0.00 | 8 | 1011.9 |
| 20260506102104 | 61 | 41 | 3.0 | 6.0 | 0.00 | 0.27 | 0.00 | 3 | 1011.9 |
| 20260506101604 | 61 | 24 | 0.0 | 3.0 | 0.00 | 0.27 | 0.00 | 3 | 1012.0 |
| 20260506101103 | 60 | 55 | 6.0 | 8.0 | 0.00 | 0.27 | 0.00 | 3 | 1012.0 |
| 20260506100604 | 60 | 32 | 7.0 | 10.0 | 0.00 | 0.27 | 0.00 | 3 | 1012.0 |
| 20260506100104 | 60 | 71 | 7.0 | 12.0 | 0.00 | 0.27 | 0.00 | 3 | 1012.0 |
| 20260506095603 | 61 | 71 | 3.0 | 8.0 | 0.00 | 0.27 | 0.00 | 3 | 1012.1 |
| 20260506095103 | 60 | 123 | 2.0 | 6.0 | 0.00 | 0.27 | 0.00 | 3 | 1012.1 |
| 20260506094604 | 60 | 143 | 2.0 | 6.0 | 0.00 | 0.27 | 0.00 | 3 | 1012.2 |
| 20260506094104 | 59 | 85 | 2.0 | 3.0 | 0.00 | 0.27 | 0.00 | 3 | 1012.1 |
| 20260506093603 | 59 | 103 | 2.0 | 3.0 | 0.00 | 0.27 | 0.00 | 3 | 1012.0 |
| 20260506092603 | 58 | 72 | 4.0 | 8.0 | 0.00 | 0.27 | 0.00 | 3 | 1012.0 |
| 20260506091604 | 58 | 67 | 3.0 | 7.0 | 0.00 | 0.27 | 0.00 | 3 | 1011.9 |
| 20260506091103 | 58 | 41 | 3.0 | 6.0 | 0.00 | 0.27 | 0.00 | 3 | 1011.8 |
| 20260506085604 | 57 | 329 | 0.0 | 0.0 | 0.00 | 0.27 | 0.00 | 3 | 1011.8 |
| 20260506085103 | 57 | 329 | 0.0 | 2.0 | 0.00 | 0.27 | 0.00 | 3 | 1011.8 |
| 20260506084603 | 57 | 327 | 1.0 | 2.0 | 0.00 | 0.27 | 0.00 | 3 | 1011.8 |
| 20260506084103 | 57 | 344 | 0.0 | 2.0 | 0.00 | 0.27 | 0.00 | 3 | 1011.7 |
| 20260506083603 | 57 | 346 | 1.0 | 2.0 | 0.00 | 0.27 | 0.00 | 3 | 1011.6 |
| 20260506083104 | 57 | 0 | 0.0 | 3.0 | 0.00 | 0.27 | 0.00 | 3 | 1011.7 |
| 20260506082104 | 57 | 346 | 1.0 | 3.0 | 0.00 | 0.27 | 0.00 | 3 | 1011.6 |
| 20260506081603 | 56 | 338 | 1.0 | 3.0 | 0.00 | 0.27 | 0.00 | 3 | 1011.6 |
| 20260506081103 | 56 | 333 | 1.0 | 3.0 | 0.00 | 0.27 | 0.00 | 3 | 1011.5 |
| 20260506080604 | 56 | 335 | 1.0 | 3.0 | 0.00 | 0.27 | 0.00 | 3 | 1011.5 |
| 20260506072604 | 56 | 4 | 2.0 | 3.0 | 0.00 | 0.27 | 0.00 | 3 | 1011.5 |
| 20260506072103 | 56 | 323 | 2.0 | 3.0 | 0.00 | 0.27 | 0.00 | 3 | 1011.5 |
| 20260506071103 | 56 | 248 | 0.0 | 1.0 | 0.00 | 0.27 | 0.00 | 3 | 1011.4 |
| 20260506070604 | 56 | 248 | 0.0 | 1.0 | 0.00 | 0.27 | 0.00 | 3 | 1011.4 |
| 20260506070103 | 56 | 248 | 0.0 | 1.0 | 0.00 | 0.27 | 0.00 | 3 | 1011.4 |
| 20260506062103 | 55 | 139 | 2.0 | 5.0 | 0.00 | 0.27 | 0.00 | 3 | 1011.1 |
| 20260506061604 | 55 | 187 | 2.0 | 3.0 | 0.00 | 0.27 | 0.00 | 3 | 1011.1 |
| 20260506060603 | 54 | 166 | 2.0 | 5.0 | 0.00 | 0.27 | 0.00 | 3 | 1011.1 |
| 20260506060105 | 54 | 174 | 2.0 | 3.0 | 0.00 | 0.27 | 0.00 | 3 | 1011.0 |
| 20260506051104 | 52 | 205 | 2.0 | 3.0 | 0.00 | 0.27 | 0.00 | 3 | 1010.5 |
| 20260506050604 | 52 | 157 | 2.0 | 3.0 | 0.00 | 0.27 | 0.00 | 3 | 1010.4 |
| 20260506050105 | 52 | 0 | 1.0 | 5.0 | 0.00 | 0.27 | 0.00 | 3 | 1010.3 |
| 20260506045104 | 52 | 180 | 3.0 | 5.0 | 0.00 | 0.27 | 0.00 | 3 | 1010.3 |
| 20260506044604 | 52 | 201 | 3.0 | 3.0 | 0.00 | 0.27 | 0.00 | 3 | 1010.3 |
| 20260506043103 | 52 | 161 | 3.0 | 5.0 | 0.00 | 0.27 | 0.00 | 3 | 1010.2 |
| 20260506042603 | 52 | 175 | 3.0 | 5.0 | 0.00 | 0.27 | 0.00 | 3 | 1010.1 |
| 20260506042103 | 52 | 170 | 3.0 | 6.0 | 0.00 | 0.27 | 0.00 | 3 | 1010.0 |
| 20260506041603 | 51 | 157 | 3.0 | 5.0 | 0.00 | 0.27 | 0.00 | 3 | 1010.0 |
| 20260506041103 | 51 | 160 | 3.0 | 5.0 | 0.00 | 0.27 | 0.00 | 3 | 1010.0 |
| 20260506040604 | 51 | 174 | 3.0 | 6.0 | 0.00 | 0.27 | 0.00 | 3 | 1010.0 |
| 20260506035104 | 51 | 168 | 3.0 | 6.0 | 0.00 | 0.27 | 0.00 | 3 | 1010.0 |
| 20260506034604 | 50 | 176 | 3.0 | 6.0 | 0.00 | 0.27 | 0.00 | 3 | 1010.0 |
| 20260506033603 | 50 | 177 | 4.0 | 7.0 | 0.00 | 0.27 | 0.00 | 3 | 1010.0 |
| 20260506033103 | 50 | 167 | 3.0 | 7.0 | 0.00 | 0.27 | 0.00 | 3 | 1010.0 |
| 20260506032603 | 50 | 162 | 5.0 | 6.0 | 0.00 | 0.27 | 0.00 | 3 | 1009.9 |
| 20260506032103 | 50 | 165 | 5.0 | 6.0 | 0.00 | 0.27 | 0.00 | 3 | 1009.9 |
| 20260506031605 | 50 | 171 | 3.0 | 7.0 | 0.00 | 0.27 | 0.00 | 3 | 1010.0 |
| 20260506031104 | 50 | 168 | 3.0 | 6.0 | 0.00 | 0.27 | 0.00 | 3 | 1009.9 |
| 20260506030604 | 50 | 176 | 5.0 | 6.0 | 0.00 | 0.27 | 0.00 | 3 | 1009.9 |
| 20260506030104 | 50 | 171 | 5.0 | 7.0 | 0.00 | 0.27 | 0.00 | 3 | 1009.9 |
| 20260506025604 | 49 | 174 | 5.0 | 7.0 | 0.00 | 0.27 | 0.00 | 3 | 1009.9 |
| 20260506025104 | 50 | 169 | 4.0 | 7.0 | 0.00 | 0.27 | 0.00 | 3 | 1009.9 |
| 20260506024603 | 50 | 162 | 4.0 | 7.0 | 0.00 | 0.27 | 0.00 | 3 | 1009.8 |
| 20260506024104 | 50 | 160 | 5.0 | 7.0 | 0.00 | 0.27 | 0.00 | 3 | 1009.8 |
| 20260506023604 | 50 | 161 | 5.0 | 7.0 | 0.00 | 0.27 | 0.00 | 3 | 1009.8 |
| 20260506023104 | 50 | 166 | 4.0 | 8.0 | 0.00 | 0.27 | 0.00 | 3 | 1009.8 |
| 20260506022603 | 50 | 170 | 4.0 | 7.0 | 0.00 | 0.27 | 0.00 | 3 | 1009.7 |
| 20260506022104 | 50 | 139 | 5.0 | 8.0 | 0.00 | 0.27 | 0.00 | 3 | 1009.8 |
| 20260506021604 | 50 | 161 | 5.0 | 6.0 | 0.00 | 0.27 | 0.00 | 3 | 1009.8 |
| 20260506021103 | 50 | 168 | 5.0 | 7.0 | 0.00 | 0.27 | 0.00 | 3 | 1009.8 |
| 20260506020603 | 50 | 174 | 5.0 | 6.0 | 0.00 | 0.27 | 0.00 | 3 | 1009.7 |
| 20260506020105 | 50 | 148 | 3.0 | 9.0 | 0.00 | 0.27 | 0.00 | 3 | 1009.7 |
| 20260506015603 | 50 | 176 | 4.0 | 7.0 | 0.00 | 0.28 | 0.00 | 3 | 1009.7 |
| 20260506014104 | 51 | 167 | 5.0 | 8.0 | 0.00 | 0.28 | 0.00 | 3 | 1009.8 |
| 20260506013603 | 51 | 168 | 4.0 | 7.0 | 0.00 | 0.28 | 0.00 | 3 | 1009.8 |
| 20260506013103 | 51 | 173 | 5.0 | 6.0 | 0.00 | 0.28 | 0.00 | 3 | 1009.7 |
| 20260506012604 | 51 | 164 | 3.0 | 6.0 | 0.00 | 0.28 | 0.00 | 3 | 1009.8 |
| 20260506012104 | 51 | 155 | 3.0 | 7.0 | 0.00 | 0.28 | 0.00 | 3 | 1009.7 |
| 20260506011604 | 51 | 157 | 5.0 | 7.0 | 0.00 | 0.28 | 0.00 | 3 | 1009.7 |
| 20260506011105 | 51 | 151 | 3.0 | 6.0 | 0.00 | 0.28 | 0.00 | 3 | 1009.7 |
| 20260506010604 | 51 | 165 | 5.0 | 8.0 | 0.00 | 0.28 | 0.00 | 3 | 1009.8 |
| 20260506005103 | 51 | 152 | 3.0 | 7.0 | 0.00 | 0.37 | 0.00 | 3 | 1009.9 |
| 20260506004604 | 50 | 144 | 5.0 | 8.0 | 0.00 | 0.43 | 0.00 | 3 | 1010.0 |
| 20260506003604 | 51 | 183 | 5.0 | 7.0 | 0.00 | 0.46 | 0.00 | 3 | 1009.9 |
| 20260506003104 | 50 | 191 | 4.0 | 6.0 | 0.00 | 0.46 | 0.00 | 3 | 1010.0 |
| 20260506002603 | 51 | 183 | 5.0 | 7.0 | 0.00 | 0.46 | 0.00 | 3 | 1009.9 |
| 20260506002104 | 51 | 174 | 3.0 | 6.0 | 0.00 | 0.46 | 0.00 | 3 | 1009.9 |
| 20260506000604 | 51 | 159 | 3.0 | 6.0 | 0.00 | 0.46 | 0.00 | 3 | 1010.0 |
| 20260506000105 | 51 | 144 | 4.0 | 7.0 | 0.00 | 0.46 | 0.00 | 3 | 1010.0 |
| 20260505235604 | 51 | 150 | 4.0 | 7.0 | 0.00 | 0.46 | 0.00 | 3 | 1010.1 |
| 20260505235104 | 51 | 157 | 3.0 | 6.0 | 0.00 | 0.46 | 0.00 | 3 | 1010.2 |
| 20260505234604 | 51 | 165 | 3.0 | 6.0 | 0.00 | 0.46 | 0.00 | 3 | 1010.4 |
| 20260505234104 | 51 | 172 | 5.0 | 6.0 | 0.00 | 0.46 | 0.00 | 3 | 1010.5 |
| 20260505233604 | 51 | 163 | 4.0 | 6.0 | 0.00 | 0.46 | 0.00 | 3 | 1010.5 |
| 20260505233104 | 51 | 179 | 3.0 | 6.0 | 0.00 | 0.46 | 0.00 | 3 | 1010.6 |
| 20260505232104 | 51 | 159 | 5.0 | 7.0 | 0.00 | 0.46 | 0.00 | 3 | 1010.7 |
| 20260505231604 | 52 | 168 | 5.0 | 7.0 | 0.00 | 0.46 | 0.00 | 3 | 1010.6 |
| 20260505230604 | 52 | 167 | 5.0 | 6.0 | 0.00 | 0.46 | 0.00 | 3 | 1010.4 |
| 20260505230104 | 53 | 223 | 3.0 | 5.0 | 0.00 | 0.46 | 0.00 | 3 | 1010.5 |
| 20260505225103 | 53 | 167 | 3.0 | 6.0 | 0.00 | 0.46 | 0.00 | 3 | 1010.6 |
| 20260505224604 | 54 | 180 | 3.0 | 5.0 | 0.00 | 0.46 | 0.00 | 3 | 1010.7 |
| 20260505224105 | 54 | 184 | 2.0 | 5.0 | 0.00 | 0.46 | 0.00 | 3 | 1010.7 |
| 20260505223605 | 55 | 142 | 2.0 | 3.0 | 0.00 | 0.46 | 0.00 | 3 | 1010.8 |
| 20260505222604 | 56 | 181 | 2.0 | 5.0 | 0.00 | 0.46 | 0.00 | 3 | 1010.9 |
| 20260505222103 | 57 | 72 | 3.0 | 8.0 | 0.00 | 0.46 | 0.00 | 3 | 1010.9 |
| 20260505221604 | 57 | 78 | 7.0 | 12.0 | 0.00 | 0.46 | 0.00 | 3 | 1010.9 |
| 20260505221104 | 57 | 58 | 10.0 | 14.0 | 0.00 | 0.46 | 0.00 | 3 | 1011.0 |
| 20260505220604 | 57 | 46 | 9.0 | 14.0 | 0.00 | 0.46 | 0.00 | 3 | 1011.1 |
| 20260505220104 | 56 | 48 | 11.0 | 15.0 | 0.00 | 0.46 | 0.00 | 3 | 1011.2 |
| 20260505215603 | 56 | 49 | 11.0 | 16.0 | 0.00 | 0.46 | 0.46 | 3 | 1011.2 |
| 20260505215103 | 56 | 49 | 11.0 | 14.0 | 0.00 | 0.46 | 0.46 | 3 | 1011.2 |
| 20260505213604 | 56 | 38 | 14.0 | 18.0 | 0.00 | 0.46 | 0.46 | 3 | 1011.3 |
| 20260505213104 | 56 | 32 | 12.0 | 17.0 | 0.00 | 0.46 | 0.46 | 3 | 1011.4 |
| 20260505212603 | 56 | 25 | 13.0 | 17.0 | 0.00 | 0.46 | 0.46 | 3 | 1011.5 |
| 20260505211603 | 55 | 44 | 14.0 | 20.0 | 0.00 | 0.46 | 0.46 | 3 | 1011.4 |
| 20260505210604 | 55 | 33 | 17.0 | 22.0 | 0.00 | 0.46 | 0.46 | 3 | 1011.4 |
| 20260505210104 | 55 | 34 | 13.0 | 16.0 | 0.00 | 0.46 | 0.46 | 3 | 1011.5 |
| 20260505205605 | 55 | 48 | 12.0 | 17.0 | 0.01 | 0.46 | 0.46 | 3 | 1011.6 |
| 20260505204604 | 55 | 19 | 14.0 | 18.0 | 0.06 | 0.46 | 0.46 | 3 | 1011.2 |
| 20260505204104 | 54 | 32 | 15.0 | 21.0 | 0.12 | 0.46 | 0.46 | 3 | 1011.4 |
| 20260505203603 | 54 | 28 | 9.0 | 16.0 | 0.15 | 0.46 | 0.46 | 3 | 1011.4 |
| 20260505203104 | 54 | 42 | 6.0 | 13.0 | 0.17 | 0.46 | 0.46 | 3 | 1011.3 |
| 20260505202603 | 54 | 82 | 2.0 | 6.0 | 0.18 | 0.46 | 0.46 | 3 | 1011.5 |
| 20260505202104 | 54 | 170 | 2.0 | 12.0 | 0.18 | 0.46 | 0.46 | 3 | 1011.5 |
| 20260505201604 | 54 | 51 | 2.0 | 5.0 | 0.18 | 0.46 | 0.46 | 3 | 1011.5 |
| 20260505201104 | 54 | 34 | 2.0 | 3.0 | 0.18 | 0.46 | 0.46 | 3 | 1011.6 |
| 20260505200604 | 53 | 27 | 3.0 | 6.0 | 0.19 | 0.46 | 0.46 | 3 | 1011.4 |
| 20260505200104 | 53 | 23 | 7.0 | 12.0 | 0.20 | 0.46 | 0.46 | 3 | 1011.4 |
| 20260505195604 | 53 | 23 | 7.0 | 12.0 | 0.19 | 0.45 | 0.45 | 3 | 1011.2 |
| 20260505194603 | 53 | 49 | 9.0 | 10.0 | 0.15 | 0.40 | 0.40 | 3 | 1011.1 |
| 20260505193604 | 54 | 354 | 9.0 | 13.0 | 0.06 | 0.31 | 0.31 | 3 | 1011.2 |
| 20260505193104 | 54 | 335 | 7.0 | 12.0 | 0.04 | 0.28 | 0.28 | 3 | 1011.1 |
| 20260505192604 | 55 | 3 | 12.0 | 18.0 | 0.03 | 0.28 | 0.28 | 3 | 1011.0 |
| 20260505192104 | 54 | 12 | 18.0 | 24.0 | 0.03 | 0.28 | 0.28 | 3 | 1010.8 |
| 20260505191603 | 55 | 11 | 14.0 | 21.0 | 0.03 | 0.28 | 0.28 | 3 | 1011.0 |
| 20260505191104 | 55 | 6 | 16.0 | 22.0 | 0.03 | 0.28 | 0.28 | 3 | 1011.0 |
| 20260505190604 | 55 | 12 | 14.0 | 23.0 | 0.02 | 0.27 | 0.27 | 3 | 1011.0 |
| 20260505190105 | 56 | 4 | 18.0 | 28.0 | 0.02 | 0.26 | 0.26 | 3 | 1010.9 |
| 20260505185604 | 55 | 50 | 19.0 | 28.0 | 0.02 | 0.26 | 0.26 | 3 | 1010.7 |
| 20260505184604 | 60 | 21 | 7.0 | 12.0 | 0.01 | 0.25 | 0.25 | 3 | 1010.2 |
| 20260505184104 | 60 | 154 | 0.0 | 1.0 | 0.00 | 0.24 | 0.24 | 3 | 1009.9 |
| 20260505183604 | 60 | 154 | 0.0 | 2.0 | 0.00 | 0.24 | 0.24 | 3 | 1009.7 |
| 20260505183104 | 60 | 154 | 1.0 | 3.0 | 0.00 | 0.24 | 0.24 | 3 | 1009.6 |
| 20260505182604 | 60 | 155 | 3.0 | 7.0 | 0.00 | 0.24 | 0.24 | 3 | 1009.4 |
| 20260505182104 | 61 | 159 | 2.0 | 3.0 | 0.00 | 0.24 | 0.24 | 3 | 1009.4 |
| 20260505181104 | 61 | 143 | 2.0 | 3.0 | 0.00 | 0.24 | 0.24 | 3 | 1009.5 |
| 20260505180104 | 61 | 257 | 0.0 | 0.0 | 0.00 | 0.24 | 0.24 | 3 | 1009.5 |
| 20260505175604 | 60 | 329 | 0.0 | 2.0 | 0.00 | 0.24 | 0.24 | 3 | 1009.4 |
| 20260505175105 | 60 | 136 | 1.0 | 2.0 | 0.00 | 0.24 | 0.24 | 3 | 1009.4 |
| 20260505174604 | 60 | 132 | 2.0 | 5.0 | 0.00 | 0.24 | 0.24 | 3 | 1009.4 |
| 20260505173604 | 60 | 116 | 3.0 | 3.0 | 0.00 | 0.24 | 0.24 | 3 | 1009.2 |
| 20260505173104 | 60 | 115 | 0.0 | 3.0 | 0.01 | 0.24 | 0.24 | 3 | 1009.2 |
| 20260505172603 | 60 | 108 | 3.0 | 6.0 | 0.01 | 0.24 | 0.24 | 3 | 1009.2 |
| 20260505172104 | 61 | 134 | 2.0 | 3.0 | 0.01 | 0.24 | 0.24 | 3 | 1009.3 |
| 20260505171604 | 61 | 198 | 0.0 | 1.0 | 0.02 | 0.24 | 0.24 | 3 | 1009.3 |
| 20260505170604 | 61 | 319 | 0.0 | 2.0 | 0.02 | 0.24 | 0.24 | 3 | 1009.2 |
| 20260505170104 | 61 | 293 | 1.0 | 2.0 | 0.03 | 0.24 | 0.24 | 3 | 1009.2 |
| 20260505165604 | 61 | 218 | 2.0 | 6.0 | 0.05 | 0.24 | 0.24 | 3 | 1009.2 |
| 20260505165104 | 61 | 224 | 3.0 | 7.0 | 0.05 | 0.24 | 0.24 | 3 | 1009.2 |
| 20260505164603 | 61 | 229 | 1.0 | 6.0 | 0.05 | 0.24 | 0.24 | 3 | 1009.3 |
| 20260505164105 | 61 | 217 | 3.0 | 7.0 | 0.05 | 0.24 | 0.24 | 3 | 1009.5 |
| 20260505163104 | 61 | 179 | 2.0 | 8.0 | 0.04 | 0.24 | 0.24 | 3 | 1009.5 |
| 20260505162104 | 61 | 167 | 5.0 | 12.0 | 0.04 | 0.24 | 0.24 | 3 | 1009.5 |
| 20260505161604 | 61 | 153 | 9.0 | 13.0 | 0.02 | 0.22 | 0.22 | 3 | 1009.4 |
| 20260505161103 | 61 | 160 | 6.0 | 13.0 | 0.02 | 0.22 | 0.22 | 3 | 1009.4 |
| 20260505160604 | 62 | 140 | 9.0 | 15.0 | 0.02 | 0.22 | 0.22 | 3 | 1009.4 |